Location: Amsterdam
(42.9386°N, 74.1886°W)
Time: 20:01:30
(UTC-05:00)

OTV 5 (USA 277) - Visible Passes

Search period start: 14 December 2018 00:00
Search period end: 24 December 2018 00:00
Orbit: 340 x 348 km, 54.5° (Epoch: 10 December)

Date Brightness Start Highest point End Pass type
(mag) Time Alt. Az. Time Alt. Az. Time Alt. Az.
14 Dec ? 04:43:46 12° E 04:43:46 12° E 04:44:09 10° E visible
14 Dec ? 06:15:13 20° W 06:16:38 32° SW 06:19:14 10° SSE visible
15 Dec ? 05:06:55 26° ESE 05:06:55 26° ESE 05:08:21 10° ESE visible
15 Dec ? 06:39:47 10° WSW 06:39:58 10° SW 06:40:10 10° SW visible
16 Dec ? 05:30:07 24° S 05:30:07 24° S 05:31:41 10° SSE visible
